Location: Gesvres
(49.0440°N, 2.8518°E)
Time: 16:19:02
(UTC+00:00)

SL-08 ROCKET BODY - Pass Details

Date: 28 January 2023
Orbit: 896 x 963 km, 83.0° (Epoch: 26 March)

Event Time Altitude Azimuth Distance (km) Brightness Sun altitude
Rises 18:04:19 0° 353° (N) 3,568 7.4 -14.0°
Reaches altitude 10° 18:06:52 10° 358° (N) 2,613 6.7 -14.4°
Maximum altitude 18:12:41 54° 76° (ENE) 1,090 4.4 -15.4°
Drops below altitude 10° 18:18:23 10° 153° (SSE) 2,568 6.5 -16.3°
Sets 18:20:53 0° 158° (SSE) 3,501 7.3 -16.7°
